Farmington, MO

2:11 PM CST on November 13, 2019 (GMT -0600)
Farmington Regional

Weather History for KFAM - October, 2019

Change the Weather History Date:

Monday, October 21, 2019

  Actual Average Record
Temperature  
Mean Temperature 60 °F -  
Max Temperature 69 °F 64 °F 82 °F (2015)
Min Temperature 52 °F 43 °F 26 °F (2018)
Degree Days  
Heating Degree Days 4    
Growing Degree Days 10 (Base 50)    
Moisture  
Dew Point 54 °F    
Average Humidity 78    
Maximum Humidity 100    
Minimum Humidity 35    
Precipitation  
Precipitation 0.28 in - - ()
Sea Level Pressure  
Sea Level Pressure 29.65 in    
Wind  
Wind Speed 13 mph (SSW)    
Max Wind Speed 20 mph    
Max Gust Speed 38 mph    
Visibility 10 miles    
Events Rain , Thunderstorm    
Averages and records for this station are not official NWS values.
T = Trace of Precipitation, MM = Missing Value Source: NWS Daily Summary

Daily Weather History Graph

Daily Weather History Graph

Search for Another Location

Airport or City:

Astronomy

Oct. 21, 2019 Rise Set
Actual Time 7:15 AM CDT 6:16 PM CDT
Civil Twilight 6:49 AM CDT 6:43 PM CDT
Nautical Twilight 6:18 AM CDT 7:13 PM CDT
Astronomical Twilight 5:48 AM CDT 7:43 PM CDT
Moon No Moon Rise 2:30 PM CDT (10/21)
Length of Visible Light 11h 54m
Length of Day
11h 00m
Waning Gibbous, 48% of the Moon is Illuminated
Oct 21
Waning Gibbous
Oct 27
New
Nov 4
First Quarter
Nov 12
Full
Nov 19
Last Quarter

Hourly Weather History & Observations

Time (CDT) Temp. Dew Point Humidity Pressure Visibility Wind Dir Wind Speed Gust Speed Precip Events Conditions
1:15 AM 62.6 °F 57.2 °F 82% 29.68 in 10.0 mi SSE 13.8 mph - N/A   Mostly Cloudy
1:56 AM 64.0 °F 60.1 °F 87% 29.67 in 10.0 mi SSE 15.0 mph - N/A   Overcast
2:52 AM 62.6 °F 60.8 °F 94% 29.60 in 7.0 mi SE 16.1 mph - 0.04 in Rain , Thunderstorm Heavy Thunderstorms and Rain
2:56 AM 63.0 °F 61.0 °F 93% 29.61 in 7.0 mi SSE 15.0 mph - 0.05 in Rain , Thunderstorm Thunderstorms and Rain
3:12 AM 62.6 °F 62.6 °F 100% 29.60 in 10.0 mi SSE 12.7 mph - 0.00 in Thunderstorm Overcast
3:22 AM 62.6 °F 62.6 °F 100% 29.59 in 10.0 mi SSE 10.4 mph - 0.00 in   Overcast
3:37 AM 62.6 °F 62.6 °F 100% 29.57 in 10.0 mi SE 12.7 mph 23.0 mph 0.00 in Thunderstorm Thunderstorm
3:56 AM 63.0 °F 63.0 °F 100% 29.60 in 5.0 mi SSE 16.1 mph 23.0 mph 0.11 in Rain , Thunderstorm Light Thunderstorms and Rain
4:22 AM 66.2 °F 62.6 °F 88% 29.61 in 10.0 mi SW 15.0 mph 38.0 mph 0.03 in Rain , Thunderstorm Light Rain
4:28 AM 64.4 °F 60.8 °F 88% 29.61 in 10.0 mi SW 13.8 mph 25.3 mph 0.04 in Rain , Thunderstorm Rain
4:56 AM 63.0 °F 61.0 °F 93% 29.60 in 10.0 mi Variable 5.8 mph - 0.09 in Rain Light Rain
5:56 AM 61.0 °F 60.1 °F 97% 29.57 in 10.0 mi SSE 10.4 mph - 0.00 in Rain Light Rain
6:56 AM 60.1 °F 59.0 °F 96% 29.55 in 10.0 mi SSE 17.3 mph 24.2 mph 0.02 in Rain Light Rain
7:26 AM 60.8 °F 59.0 °F 94% 29.58 in 10.0 mi South 11.5 mph 19.6 mph 0.01 in   Mostly Cloudy
7:47 AM 60.8 °F 59.0 °F 94% 29.56 in 10.0 mi South 9.2 mph - 0.01 in   Mostly Cloudy
7:56 AM 60.1 °F 59.0 °F 96% 29.59 in 10.0 mi SSW 5.8 mph - 0.01 in   Overcast
8:56 AM 60.1 °F 59.0 °F 96% 29.61 in 10.0 mi SSW 13.8 mph - N/A   Overcast
9:04 AM 60.8 °F 59.0 °F 94% 29.59 in 10.0 mi SSW 11.5 mph - N/A   Overcast
9:14 AM 60.8 °F 59.0 °F 94% 29.60 in 10.0 mi SSW 12.7 mph 20.7 mph N/A   Overcast
9:31 AM 60.8 °F 59.0 °F 94% 29.60 in 10.0 mi SSW 15.0 mph 19.6 mph N/A   Overcast
9:56 AM 61.0 °F 59.0 °F 93% 29.62 in 10.0 mi SSW 17.3 mph 24.2 mph N/A   Overcast
10:56 AM 61.0 °F 59.0 °F 93% 29.64 in 10.0 mi SW 11.5 mph 18.4 mph 0.00 in Rain Light Rain
11:05 AM 62.6 °F 59.0 °F 88% 29.62 in 10.0 mi SW 11.5 mph - 0.00 in   Mostly Cloudy
11:14 AM 62.6 °F 57.2 °F 82% 29.62 in 10.0 mi SW 13.8 mph 18.4 mph 0.00 in   Scattered Clouds
11:48 AM 64.4 °F 55.4 °F 73% 29.63 in 10.0 mi SSW 15.0 mph 20.7 mph 0.00 in   Mostly Cloudy
11:56 AM 66.0 °F 57.0 °F 73% 29.65 in 10.0 mi SW 11.5 mph 19.6 mph 0.00 in   Scattered Clouds
12:56 PM 66.9 °F 51.1 °F 57% 29.65 in 10.0 mi SW 19.6 mph 27.6 mph N/A   Scattered Clouds
1:56 PM 68.0 °F 48.0 °F 49% 29.64 in 10.0 mi SSW 16.1 mph 25.3 mph N/A   Clear
2:56 PM 69.1 °F 42.1 °F 38% 29.64 in 10.0 mi WSW 17.3 mph 20.7 mph N/A   Clear
3:56 PM 68.0 °F 39.0 °F 35% 29.66 in 10.0 mi SW 18.4 mph 26.5 mph N/A   Clear
4:56 PM 66.0 °F 41.0 °F 40% 29.68 in 10.0 mi SW 15.0 mph 24.2 mph N/A   Clear
5:56 PM 63.0 °F 39.9 °F 43% 29.72 in 10.0 mi WSW 11.5 mph - N/A   Clear
6:56 PM 59.0 °F 41.0 °F 51% 29.76 in 10.0 mi WSW 6.9 mph - N/A   Clear
7:56 PM 57.0 °F 39.9 °F 53% 29.79 in 10.0 mi WSW 4.6 mph - N/A   Clear
8:56 PM 53.1 °F 39.9 °F 61% 29.79 in 10.0 mi South 6.9 mph - N/A   Clear
9:56 PM 52.0 °F 39.0 °F 61% 29.82 in 10.0 mi South 5.8 mph - N/A   Clear
10:56 PM 55.0 °F 37.9 °F 53% 29.83 in 10.0 mi WSW 8.1 mph - N/A   Clear
11:56 PM 54.0 °F 37.0 °F 53% 29.85 in 10.0 mi WSW 8.1 mph - N/A   Clear